M I D A S
Marine Information and Data Acquisition System
Tripno 1695 of the Zeeleeuw from 2009-05-18 15:11:23 to 2009-05-19 10:30:27
Back to CruiseResearch ActivitiesStationsMapUnderway DataData graphs

EquipmentUnitsComments
TimeDGPSUTC
LatitudeDGPSDM.mWGS84
LongitudeDGPSDM.mWGS84
SpeedMeteo Stationm/sRelative wind speed
DirectionMeteo StationdegRelative wind direction
TemperatureMeteo Stationdeg CelciusAir temperature
PressureMeteo StationPaAtmospheric pressure
HumidityMeteo Station%Relative humidity
Missing or incorrect values are displayed as -999
Metereological data collected by the RV Zeeleeuw from 2009-05-18 15:14:39 to 2009-05-20 09:16:23
                                                                                    Next 1000 lines
Time Latitude Longitude Speed Direction Temperature Pressure Humidity
2009-05-18 15:14:49 51°13.663 2°55.956 5.9 23 15.8 101690 55
2009-05-18 15:14:54 51°13.664 2°55.953 5.7 2 15.8 101690 55
2009-05-18 15:14:59 51°13.665 2°55.95 2.8 21 15.8 101690 55
2009-05-18 15:15:05 51°13.666 2°55.944 2.2 360 15.8 101690 55
2009-05-18 15:15:10 51°13.668 2°55.94 5.8 13 15.8 101680 55
2009-05-18 15:15:16 51°13.669 2°55.934 6.7 15 15.8 101680 55
2009-05-18 15:15:22 51°13.671 2°55.927 5.2 14 15.8 101690 55
2009-05-18 15:15:28 51°13.673 2°55.92 4.2 27 15.8 101690 55
2009-05-18 15:15:33 51°13.674 2°55.914 4.2 24 15.9 101690 56
2009-05-18 15:15:38 51°13.675 2°55.907 4.2 23 15.9 101690 56
2009-05-18 15:15:43 51°13.677 2°55.901 4.2 33 15.9 101680 55
2009-05-18 15:15:48 51°13.678 2°55.894 3.7 31 15.9 101680 55
2009-05-18 15:15:53 51°13.679 2°55.887 4.3 43 15.9 101680 55
2009-05-18 15:15:58 51°13.68 2°55.881 2 26 15.9 101680 55
2009-05-18 15:16:03 51°13.681 2°55.874 2.5 28 15.9 101690 55
2009-05-18 15:16:08 51°13.682 2°55.868 2.9 34 15.9 101690 55
2009-05-18 15:16:13 51°13.683 2°55.861 1.8 31 15.9 101680 55
2009-05-18 15:16:18 51°13.684 2°55.854 0.9 306 15.9 101680 55
2009-05-18 15:16:23 51°13.685 2°55.847 0.8 259 15.9 101680 56
2009-05-18 15:16:28 51°13.686 2°55.841 0.7 41 15.9 101680 56
2009-05-18 15:16:33 51°13.687 2°55.834 0.9 27 16 101680 56
2009-05-18 15:16:38 51°13.688 2°55.827 2.5 34 16 101680 56
2009-05-18 15:16:43 51°13.689 2°55.82 2.5 42 16 101680 56
2009-05-18 15:16:48 51°13.69 2°55.812 2.6 15 16 101680 56
2009-05-18 15:16:53 51°13.692 2°55.805 4.1 30 16 101680 56
2009-05-18 15:16:58 51°13.693 2°55.798 4.5 42 16 101680 56
2009-05-18 15:17:03 51°13.694 2°55.791 4.7 43 16 101680 56
2009-05-18 15:17:08 51°13.695 2°55.784 3.6 37 16 101680 56
2009-05-18 15:17:13 51°13.695 2°55.777 4.2 32 16 101680 56
2009-05-18 15:17:18 51°13.696 2°55.771 4.3 20 16 101680 56
2009-05-18 15:17:23 51°13.697 2°55.766 5.3 19 16.1 101680 56
2009-05-18 15:17:28 51°13.698 2°55.762 6.9 31 16.1 101680 56
2009-05-18 15:17:33 51°13.698 2°55.76 5.6 28 16.1 101680 55
2009-05-18 15:17:38 51°13.698 2°55.758 5.1 23 16.1 101680 55
2009-05-18 15:17:43 51°13.699 2°55.757 3.5 28 16.1 101680 55
2009-05-18 15:17:48 51°13.699 2°55.756 4.4 24 16.1 101680 55
2009-05-18 15:17:52 51°13.7 2°55.756 5.7 39 16.1 101670 54
2009-05-18 15:17:57 51°13.7 2°55.756 5.1 44 16.1 101670 54
2009-05-18 15:18:03 51°13.701 2°55.757 3.2 41 16.1 101660 54
2009-05-18 15:18:07 51°13.702 2°55.758 3.7 39 16.1 101660 54
2009-05-18 15:18:12 51°13.703 2°55.759 5.6 30 16.1 101670 55
2009-05-18 15:18:17 51°13.704 2°55.76 5.8 39 16.1 101670 55
2009-05-18 15:18:22 51°13.706 2°55.761 4.2 40 16.1 101680 55
2009-05-18 15:18:27 51°13.707 2°55.761 5.5 42 16.1 101680 55
2009-05-18 15:18:32 51°13.707 2°55.761 3.2 25 16.1 101680 55
2009-05-18 15:18:37 51°13.707 2°55.76 4.5 58 16.1 101680 55
2009-05-18 15:18:42 51°13.706 2°55.759 5.6 26 16.1 101680 54
2009-05-18 15:18:47 51°13.705 2°55.758 6 32 16.1 101680 54
2009-05-18 15:18:51 51°13.704 2°55.757 6.2 44 16.2 101680 54
2009-05-18 15:18:56 51°13.703 2°55.756 6 35 16.2 101680 54
2009-05-18 15:19:01 51°13.702 2°55.755 5.4 22 16.2 101680 54
2009-05-18 15:19:06 51°13.701 2°55.754 6.1 60 16.2 101680 54
2009-05-18 15:19:11 51°13.701 2°55.753 7.1 29 16.2 101680 54
2009-05-18 15:19:16 51°13.701 2°55.752 5.1 58 16.2 101680 54
2009-05-18 15:19:21 51°13.702 2°55.752 4.8 26 16.1 101680 54
2009-05-18 15:19:26 51°13.703 2°55.752 3.1 50 16.1 101680 54
2009-05-18 15:19:31 51°13.706 2°55.752 2 27 16.2 101680 54
2009-05-18 15:19:36 51°13.708 2°55.751 0.9 30 16.2 101680 54
2009-05-18 15:19:41 51°13.711 2°55.75 2.4 21 16.1 101680 54
2009-05-18 15:19:46 51°13.715 2°55.749 2 32 16.1 101680 54
2009-05-18 15:19:51 51°13.719 2°55.746 1.6 270 16.1 101680 54
2009-05-18 15:19:56 51°13.723 2°55.743 1.8 314 16.1 101680 54
2009-05-18 15:20:00 51°13.726 2°55.74 1.2 22 16.1 101680 54
2009-05-18 15:20:05 51°13.731 2°55.735 2.5 241 16.1 101680 54
2009-05-18 15:20:10 51°13.736 2°55.73 2.3 326 16.2 101680 54
2009-05-18 15:20:15 51°13.741 2°55.725 3.2 259 16.2 101680 54
2009-05-18 15:20:20 51°13.747 2°55.719 5.2 257 16.2 101690 54
2009-05-18 15:20:25 51°13.753 2°55.713 6.1 303 16.2 101690 54
2009-05-18 15:20:30 51°13.759 2°55.707 4.2 257 16.2 101690 54
2009-05-18 15:20:35 51°13.766 2°55.7 2.7 240 16.2 101690 54
2009-05-18 15:20:39 51°13.772 2°55.694 2.9 24 16.2 101690 54
2009-05-18 15:20:45 51°13.781 2°55.685 4.6 304 16.2 101690 54
2009-05-18 15:20:50 51°13.789 2°55.677 3.8 26 16.3 101690 54
2009-05-18 15:20:55 51°13.798 2°55.67 4.9 302 16.3 101690 54
2009-05-18 15:20:59 51°13.805 2°55.663 6.2 256 16.3 101690 54
2009-05-18 15:21:04 51°13.814 2°55.655 6.4 246 16.3 101690 54
2009-05-18 15:21:09 51°13.823 2°55.647 6.2 23 16.3 101690 53
2009-05-18 15:21:14 51°13.832 2°55.638 4.9 305 16.3 101690 53
2009-05-18 15:21:19 51°13.842 2°55.63 4.3 26 16.4 101690 53
2009-05-18 15:21:24 51°13.852 2°55.623 4.2 301 16.4 101690 53
2009-05-18 15:21:29 51°13.862 2°55.615 3.4 27 16.4 101680 53
2009-05-18 15:21:35 51°13.875 2°55.606 5.5 303 16.4 101680 53
2009-05-18 15:21:39 51°13.883 2°55.599 3.4 28 16.4 101680 53
2009-05-18 15:21:44 51°13.893 2°55.591 3.7 309 16.4 101680 53
2009-05-18 15:21:49 51°13.904 2°55.583 2.6 338 16.4 101680 52
2009-05-18 15:21:54 51°13.915 2°55.575 2.9 321 16.4 101680 52
2009-05-18 15:21:59 51°13.925 2°55.567 2.2 327 16.4 101680 52
2009-05-18 15:22:04 51°13.936 2°55.559 2.5 305 16.4 101680 52
2009-05-18 15:22:09 51°13.947 2°55.551 4.2 28 16.4 101690 52
2009-05-18 15:22:14 51°13.957 2°55.543 3.5 301 16.4 101690 52
2009-05-18 15:22:19 51°13.968 2°55.535 4.6 317 16.4 101680 52
2009-05-18 15:22:24 51°13.979 2°55.526 5 30 16.4 101680 52
2009-05-18 15:22:29 51°13.989 2°55.517 5.3 21 16.4 101680 52
2009-05-18 15:22:34 51°14 2°55.509 5.5 318 16.4 101680 52
2009-05-18 15:22:39 51°14.012 2°55.501 4.7 27 16.5 101680 52
2009-05-18 15:22:44 51°14.023 2°55.494 8.3 306 16.5 101680 52
2009-05-18 15:22:49 51°14.034 2°55.486 8.8 26 16.4 101680 52
2009-05-18 15:22:54 51°14.045 2°55.477 3.3 32 16.4 101680 52
2009-05-18 15:22:59 51°14.056 2°55.469 4.9 25 16.5 101680 52
2009-05-18 15:23:04 51°14.068 2°55.461 2.3 270 16.5 101680 52
2009-05-18 15:23:09 51°14.079 2°55.453 3.2 24 16.5 101670 52
2009-05-18 15:23:14 51°14.091 2°55.445 3.4 304 16.5 101670 52
2009-05-18 15:23:19 51°14.103 2°55.437 4.3 321 16.5 101680 52
2009-05-18 15:23:24 51°14.114 2°55.428 4.3 255 16.5 101680 52
2009-05-18 15:23:29 51°14.126 2°55.419 3.7 252 16.5 101680 52
2009-05-18 15:23:35 51°14.14 2°55.409 3.2 308 16.5 101680 52
2009-05-18 15:23:39 51°14.149 2°55.402 3.6 319 16.5 101680 52
2009-05-18 15:23:44 51°14.16 2°55.392 7 307 16.5 101680 52
2009-05-18 15:23:49 51°14.171 2°55.381 6.5 27 16.5 101680 52
2009-05-18 15:23:55 51°14.183 2°55.367 6.6 311 16.5 101680 52
2009-05-18 15:23:59 51°14.191 2°55.357 6.3 316 16.5 101680 52
2009-05-18 15:24:04 51°14.201 2°55.345 7.3 301 16.5 101680 52
2009-05-18 15:24:09 51°14.211 2°55.332 5.4 23 16.5 101670 52
2009-05-18 15:24:15 51°14.223 2°55.317 10.8 304 16.5 101670 52
2009-05-18 15:24:19 51°14.231 2°55.306 8.4 22 16.5 101670 52
2009-05-18 15:24:23 51°14.238 2°55.295 8.7 304 16.5 101670 52
2009-05-18 15:24:29 51°14.249 2°55.277 11.8 25 16.5 101670 50
2009-05-18 15:24:35 51°14.26 2°55.259 9.3 239 16.5 101670 50
2009-05-18 15:24:39 51°14.267 2°55.247 8.5 241 16.4 101680 49
2009-05-18 15:24:44 51°14.276 2°55.232 6.8 246 16.4 101680 49
2009-05-18 15:24:49 51°14.286 2°55.217 6.4 248 16.4 101670 48
2009-05-18 15:24:55 51°14.297 2°55.199 7.9 301 16.4 101670 48
2009-05-18 15:24:59 51°14.304 2°55.186 8.7 26 16.5 101650 48
2009-05-18 15:25:04 51°14.313 2°55.17 6.4 305 16.5 101650 48
2009-05-18 15:25:09 51°14.321 2°55.154 9 27 16.4 101680 48
2009-05-18 15:25:14 51°14.33 2°55.138 9.5 305 16.4 101680 48
2009-05-18 15:25:19 51°14.339 2°55.121 7.3 319 16.4 101680 48
2009-05-18 15:25:24 51°14.347 2°55.104 9.3 32 16.4 101680 48
2009-05-18 15:25:29 51°14.356 2°55.087 10 22 16.4 101670 48
2009-05-18 15:25:34 51°14.365 2°55.071 10.4 310 16.4 101670 48
2009-05-18 15:25:39 51°14.374 2°55.055 10.7 22 16.4 101680 49
2009-05-18 15:25:44 51°14.384 2°55.04 10.9 304 16.4 101680 49
2009-05-18 15:25:48 51°14.392 2°55.028 11 27 16.4 101660 48
2009-05-18 15:25:54 51°14.405 2°55.011 11.5 243 16.4 101660 48
2009-05-18 15:25:59 51°14.416 2°54.997 11 24 16.4 101670 48
2009-05-18 15:26:04 51°14.427 2°54.982 9.8 303 16.4 101670 48
2009-05-18 15:26:08 51°14.437 2°54.971 11.8 20 16.4 101660 49
2009-05-18 15:26:14 51°14.451 2°54.954 10.8 239 16.4 101660 49
2009-05-18 15:26:19 51°14.463 2°54.94 11.6 21 16.4 101660 50
2009-05-18 15:26:24 51°14.475 2°54.926 10.5 305 16.4 101660 50
2009-05-18 15:26:28 51°14.486 2°54.916 11.7 26 16.4 101660 51
2009-05-18 15:26:34 51°14.501 2°54.9 10.5 243 16.4 101660 51
2009-05-18 15:26:39 51°14.515 2°54.889 10.4 29 16.3 101670 51
2009-05-18 15:26:44 51°14.529 2°54.878 11.8 309 16.3 101670 51
2009-05-18 15:26:48 51°14.54 2°54.87 10.3 248 16.3 101680 52
2009-05-18 15:26:54 51°14.558 2°54.859 8.3 247 16.3 101680 52
2009-05-18 15:26:59 51°14.573 2°54.849 9.2 19 16.3 101660 52
2009-05-18 15:27:04 51°14.587 2°54.84 7.3 303 16.3 101660 52
2009-05-18 15:27:09 51°14.603 2°54.832 7.6 23 16.3 101680 53
2009-05-18 15:27:14 51°14.618 2°54.824 8.3 303 16.3 101680 53
2009-05-18 15:27:19 51°14.633 2°54.815 8.6 246 16.3 101670 53
2009-05-18 15:27:24 51°14.648 2°54.808 8.4 247 16.3 101670 53
2009-05-18 15:27:28 51°14.66 2°54.803 8.3 20 16.3 101670 54
2009-05-18 15:27:34 51°14.679 2°54.795 8.4 310 16.3 101670 54
2009-05-18 15:27:39 51°14.694 2°54.789 7.8 247 16.3 101670 54
2009-05-18 15:27:44 51°14.71 2°54.783 9 245 16.3 101670 54
2009-05-18 15:27:48 51°14.723 2°54.778 7.5 247 16.3 101660 54
2009-05-18 15:27:54 51°14.742 2°54.772 9.3 247 16.3 101660 54
2009-05-18 15:27:59 51°14.758 2°54.767 10 249 16.2 101680 54
2009-05-18 15:28:04 51°14.774 2°54.762 9.3 302 16.2 101680 54
2009-05-18 15:28:08 51°14.786 2°54.758 9.5 252 16.2 101680 54
2009-05-18 15:28:14 51°14.805 2°54.753 10.9 250 16.2 101680 54
2009-05-18 15:28:19 51°14.821 2°54.747 10.3 20 16.2 101670 54
2009-05-18 15:28:24 51°14.837 2°54.743 8.4 310 16.2 101670 54
2009-05-18 15:28:28 51°14.849 2°54.739 11.5 255 16.2 101670 53
2009-05-18 15:28:34 51°14.868 2°54.733 10.9 251 16.2 101670 53
2009-05-18 15:28:39 51°14.883 2°54.728 10.6 253 16.2 101680 53
2009-05-18 15:28:44 51°14.899 2°54.724 10.4 301 16.2 101680 53
2009-05-18 15:28:48 51°14.911 2°54.72 9.8 254 16.2 101680 54
2009-05-18 15:28:54 51°14.93 2°54.714 9.9 258 16.2 101680 54
2009-05-18 15:28:59 51°14.945 2°54.708 10.8 256 16.2 101680 52
2009-05-18 15:29:04 51°14.961 2°54.704 10.6 303 16.2 101680 52
2009-05-18 15:29:08 51°14.973 2°54.699 8.3 253 16.2 101690 51
2009-05-18 15:29:14 51°14.992 2°54.694 9.3 255 16.2 101690 51
2009-05-18 15:29:19 51°15.007 2°54.689 10.5 257 16.1 101690 51
2009-05-18 15:29:24 51°15.023 2°54.684 11.6 302 16.1 101690 51
2009-05-18 15:29:29 51°15.039 2°54.68 10.7 259 16.1 101690 52
2009-05-18 15:29:34 51°15.054 2°54.675 8.2 306 16.1 101690 52
2009-05-18 15:29:39 51°15.07 2°54.671 9.9 258 16.1 101690 53
2009-05-18 15:29:44 51°15.085 2°54.666 11.3 259 16.1 101690 53
2009-05-18 15:29:48 51°15.098 2°54.663 10.7 255 16.1 101690 52
2009-05-18 15:29:54 51°15.116 2°54.656 9.9 300 16.1 101690 52
2009-05-18 15:29:59 51°15.132 2°54.652 11.6 254 16.1 101690 53
2009-05-18 15:30:04 51°15.147 2°54.647 8.6 253 16.1 101690 53
2009-05-18 15:30:08 51°15.159 2°54.643 11.3 255 16.1 101690 53
2009-05-18 15:30:14 51°15.178 2°54.636 9.2 255 16.1 101690 53
2009-05-18 15:30:19 51°15.194 2°54.632 9.3 257 16.1 101690 53
2009-05-18 15:30:24 51°15.209 2°54.626 10.9 252 16.1 101690 53
2009-05-18 15:30:28 51°15.222 2°54.622 8.4 250 16 101690 53
2009-05-18 15:30:34 51°15.24 2°54.616 9.3 252 16 101690 53
2009-05-18 15:30:39 51°15.256 2°54.61 10.7 259 16 101680 53
2009-05-18 15:30:44 51°15.272 2°54.605 10.3 307 16 101680 53
2009-05-18 15:30:48 51°15.284 2°54.601 11.2 256 16 101690 53
2009-05-18 15:30:54 51°15.303 2°54.594 12.1 256 16 101690 53
2009-05-18 15:30:59 51°15.318 2°54.588 12 254 16 101700 53
2009-05-18 15:31:04 51°15.334 2°54.583 10.3 300 16 101700 53
2009-05-18 15:31:09 51°15.349 2°54.578 10 258 15.9 101690 52
2009-05-18 15:31:14 51°15.365 2°54.573 10.3 254 15.9 101690 52
2009-05-18 15:31:19 51°15.381 2°54.568 9.4 252 15.9 101690 52
2009-05-18 15:31:24 51°15.396 2°54.561 10.6 306 15.9 101690 52
2009-05-18 15:31:28 51°15.409 2°54.557 9.9 253 15.9 101690 51
2009-05-18 15:31:34 51°15.427 2°54.549 9.3 251 15.9 101690 51
2009-05-18 15:31:39 51°15.443 2°54.543 9.4 250 15.9 101690 51
2009-05-18 15:31:44 51°15.458 2°54.536 10.6 246 15.9 101690 51
2009-05-18 15:31:48 51°15.471 2°54.531 9.7 23 15.9 101690 52
2009-05-18 15:31:54 51°15.489 2°54.522 11.1 303 15.9 101690 52
2009-05-18 15:31:59 51°15.504 2°54.517 8.5 27 15.9 101690 54
2009-05-18 15:32:04 51°15.519 2°54.508 8.2 245 15.9 101690 54
2009-05-18 15:32:08 51°15.532 2°54.504 8.6 247 15.9 101670 55
2009-05-18 15:32:14 51°15.55 2°54.494 12.3 306 15.9 101670 55
2009-05-18 15:32:19 51°15.566 2°54.488 9.7 251 15.9 101680 55
2009-05-18 15:32:24 51°15.581 2°54.479 10.2 250 15.9 101680 55
2009-05-18 15:32:28 51°15.593 2°54.474 9.7 248 15.9 101680 56
2009-05-18 15:32:34 51°15.612 2°54.464 11.3 250 15.9 101680 56
2009-05-18 15:32:39 51°15.627 2°54.457 8.3 22 15.8 101690 55
2009-05-18 15:32:44 51°15.642 2°54.449 8.8 247 15.8 101690 55
2009-05-18 15:32:48 51°15.654 2°54.443 9.8 247 15.8 101680 55
2009-05-18 15:32:54 51°15.673 2°54.434 9.2 247 15.8 101680 55
2009-05-18 15:32:59 51°15.688 2°54.426 8.4 21 15.8 101680 55
2009-05-18 15:33:04 51°15.703 2°54.419 9.7 302 15.8 101680 55
2009-05-18 15:33:08 51°15.715 2°54.411 9.9 249 15.8 101680 57
2009-05-18 15:33:14 51°15.734 2°54.402 8.3 243 15.8 101680 57
2009-05-18 15:33:19 51°15.749 2°54.394 9.9 23 15.8 101690 57
2009-05-18 15:33:24 51°15.764 2°54.385 8.1 302 15.8 101690 57
2009-05-18 15:33:29 51°15.779 2°54.378 8.5 22 15.7 101680 57
2009-05-18 15:33:34 51°15.795 2°54.369 7.4 240 15.7 101680 57
2009-05-18 15:33:39 51°15.81 2°54.362 8.9 24 15.7 101680 58
2009-05-18 15:33:44 51°15.825 2°54.354 8.3 304 15.7 101680 58
2009-05-18 15:33:48 51°15.838 2°54.349 9.1 21 15.7 101690 58
2009-05-18 15:33:54 51°15.856 2°54.339 9.9 242 15.7 101690 58
2009-05-18 15:33:59 51°15.872 2°54.332 7.8 28 15.7 101680 58
2009-05-18 15:34:04 51°15.887 2°54.325 10.1 242 15.7 101680 58
2009-05-18 15:34:08 51°15.899 2°54.318 7.9 27 15.7 101690 59
2009-05-18 15:34:14 51°15.918 2°54.309 7.9 240 15.7 101690 59
2009-05-18 15:34:19 51°15.933 2°54.301 10 23 15.7 101680 59
2009-05-18 15:34:24 51°15.948 2°54.293 7.6 239 15.7 101680 59
2009-05-18 15:34:28 51°15.961 2°54.288 7.9 21 15.6 101690 59
2009-05-18 15:34:34 51°15.979 2°54.279 8.7 241 15.6 101690 59
2009-05-18 15:34:39 51°15.995 2°54.274 9.2 24 15.6 101690 60
2009-05-18 15:34:44 51°16.011 2°54.269 7.6 242 15.6 101690 60
2009-05-18 15:34:48 51°16.023 2°54.265 9.8 27 15.6 101690 60
2009-05-18 15:34:54 51°16.042 2°54.26 8.2 242 15.6 101690 60
2009-05-18 15:34:59 51°16.058 2°54.257 9.2 22 15.6 101680 60
2009-05-18 15:35:04 51°16.074 2°54.255 9.4 245 15.6 101680 60
2009-05-18 15:35:09 51°16.09 2°54.253 7.3 28 15.5 101690 60
2009-05-18 15:35:14 51°16.106 2°54.251 7.3 245 15.5 101690 60
2009-05-18 15:35:19 51°16.121 2°54.25 7.9 21 15.5 101690 60
2009-05-18 15:35:24 51°16.135 2°54.249 8.4 301 15.5 101690 60
2009-05-18 15:35:28 51°16.146 2°54.25 7.7 22 15.5 101690 61
2009-05-18 15:35:34 51°16.162 2°54.249 8.3 243 15.5 101690 61
2009-05-18 15:35:39 51°16.173 2°54.249 8.6 19 15.5 101690 61
2009-05-18 15:35:44 51°16.184 2°54.249 7.1 301 15.5 101690 61
2009-05-18 15:35:48 51°16.192 2°54.25 6.7 19 15.4 101690 61
2009-05-18 15:35:54 51°16.203 2°54.251 7.1 246 15.4 101690 61
2009-05-18 15:35:59 51°16.211 2°54.252 5.5 21 15.4 101690 61
2009-05-18 15:36:04 51°16.219 2°54.254 6.5 308 15.4 101690 61
2009-05-18 15:36:08 51°16.225 2°54.256 6.2 254 15.4 101690 62
2009-05-18 15:36:15 51°16.234 2°54.26 7.4 256 15.4 101690 62
2009-05-18 15:36:19 51°16.238 2°54.261 6.4 257 15.4 101690 62
2009-05-18 15:36:24 51°16.243 2°54.264 7.2 255 15.4 101690 62
2009-05-18 15:36:28 51°16.246 2°54.265 6.1 258 15.4 101700 62
2009-05-18 15:36:34 51°16.25 2°54.267 7.9 257 15.4 101700 62
2009-05-18 15:36:39 51°16.253 2°54.267 7.2 259 15.3 101700 63
2009-05-18 15:36:44 51°16.256 2°54.268 6.1 255 15.3 101700 63
2009-05-18 15:36:48 51°16.258 2°54.268 5.6 254 15.3 101700 63
2009-05-18 15:36:54 51°16.261 2°54.268 7.6 252 15.3 101700 63
2009-05-18 15:36:59 51°16.263 2°54.268 7.8 253 15.3 101690 63
2009-05-18 15:37:04 51°16.265 2°54.267 7.2 310 15.3 101690 63
2009-05-18 15:37:08 51°16.267 2°54.268 6.3 252 15.3 101700 63
2009-05-18 15:37:14 51°16.269 2°54.267 7.1 249 15.3 101700 63
2009-05-18 15:37:19 51°16.271 2°54.267 6.4 251 15.2 101690 63
2009-05-18 15:37:24 51°16.272 2°54.266 6.5 250 15.2 101690 63
2009-05-18 15:37:29 51°16.274 2°54.266 6.9 20 15.2 101690 63
2009-05-18 15:37:34 51°16.275 2°54.266 5 252 15.2 101690 63
2009-05-18 15:37:39 51°16.277 2°54.265 5.3 252 15.2 101700 64
2009-05-18 15:37:44 51°16.278 2°54.265 7.4 284 15.2 101700 64
2009-05-18 15:37:48 51°16.279 2°54.264 6.1 250 15.2 101700 64
2009-05-18 15:37:54 51°16.281 2°54.264 7.3 253 15.2 101700 64
2009-05-18 15:37:59 51°16.282 2°54.263 6.7 250 15.1 101700 64
2009-05-18 15:38:04 51°16.283 2°54.263 7.4 304 15.1 101700 64
2009-05-18 15:38:08 51°16.284 2°54.263 7.1 251 15.1 101700 65
2009-05-18 15:38:15 51°16.286 2°54.262 6.2 250 15.1 101700 65
2009-05-18 15:38:19 51°16.286 2°54.262 7.7 250 15.1 101690 65
2009-05-18 15:38:24 51°16.287 2°54.262 7.7 306 15.1 101690 65
2009-05-18 15:38:28 51°16.288 2°54.262 8.3 251 15.1 101680 64
2009-05-18 15:38:34 51°16.289 2°54.261 6.6 301 15.1 101680 64
2009-05-18 15:38:39 51°16.29 2°54.261 6.5 252 15 101690 64
2009-05-18 15:38:44 51°16.291 2°54.261 6.7 253 15 101690 64
2009-05-18 15:38:48 51°16.292 2°54.261 7.7 250 15 101690 64
2009-05-18 15:38:54 51°16.292 2°54.26 6.5 250 15 101690 64
2009-05-18 15:38:59 51°16.293 2°54.26 6.4 250 15 101690 64
2009-05-18 15:39:04 51°16.294 2°54.26 6.4 246 15 101690 64
2009-05-18 15:39:09 51°16.295 2°54.259 6.9 21 14.9 101690 64
2009-05-18 15:39:14 51°16.295 2°54.259 5 249 14.9 101690 64
2009-05-18 15:39:19 51°16.296 2°54.259 6.9 21 14.9 101690 64
2009-05-18 15:39:24 51°16.296 2°54.258 7.1 249 14.9 101690 64
2009-05-18 15:39:28 51°16.297 2°54.258 5.7 23 14.9 101690 64
2009-05-18 15:39:34 51°16.297 2°54.258 5.5 245 14.9 101690 64
2009-05-18 15:39:39 51°16.298 2°54.258 6.7 250 14.9 101690 65
2009-05-18 15:39:44 51°16.298 2°54.258 6.1 308 14.9 101690 65
2009-05-18 15:39:48 51°16.299 2°54.257 7.1 247 14.9 101690 65
2009-05-18 15:39:54 51°16.299 2°54.257 8.5 245 14.9 101690 65
2009-05-18 15:39:59 51°16.299 2°54.258 6.8 249 14.9 101690 65
2009-05-18 15:40:04 51°16.3 2°54.258 8.1 309 14.9 101690 65
2009-05-18 15:40:08 51°16.301 2°54.258 5.7 20 14.9 101690 66
2009-05-18 15:40:14 51°16.301 2°54.258 5.9 251 14.9 101690 66
2009-05-18 15:40:19 51°16.302 2°54.258 6.2 248 14.8 101690 65
2009-05-18 15:40:24 51°16.302 2°54.259 5.5 308 14.8 101690 65
2009-05-18 15:40:28 51°16.302 2°54.258 6.1 248 14.8 101690 65
2009-05-18 15:40:34 51°16.303 2°54.259 5.3 304 14.8 101690 65
2009-05-18 15:40:39 51°16.303 2°54.259 6.5 249 14.8 101690 65
2009-05-18 15:40:44 51°16.304 2°54.259 6 282 14.8 101690 65
2009-05-18 15:40:48 51°16.304 2°54.259 6.3 252 14.8 101690 65
2009-05-18 15:40:54 51°16.304 2°54.259 8.1 306 14.8 101690 65
2009-05-18 15:40:59 51°16.304 2°54.26 8.8 256 14.8 101690 66
2009-05-18 15:41:04 51°16.304 2°54.261 8.3 255 14.8 101690 66
2009-05-18 15:41:08 51°16.303 2°54.261 6.3 254 14.8 101700 66
2009-05-18 15:41:14 51°16.302 2°54.262 6.4 254 14.8 101700 66
2009-05-18 15:41:19 51°16.302 2°54.263 7.5 251 14.8 101690 66
2009-05-18 15:41:24 51°16.301 2°54.264 8.4 254 14.8 101690 66
2009-05-18 15:41:29 51°16.3 2°54.265 6.9 255 14.8 101690 66
2009-05-18 15:41:34 51°16.299 2°54.266 7.3 258 14.8 101690 66
2009-05-18 15:41:39 51°16.298 2°54.267 9.2 259 14.8 101700 65
2009-05-18 15:41:44 51°16.296 2°54.268 7.1 259 14.8 101700 65
2009-05-18 15:41:50 51°16.294 2°54.27 6.4 263 14.7 101690 65
2009-05-18 15:41:55 51°16.292 2°54.27 5.8 262 14.7 101690 65
2009-05-18 15:42:00 51°16.29 2°54.271 6.2 261 14.7 101700 66
2009-05-18 15:42:05 51°16.288 2°54.272 5 309 14.7 101700 66
2009-05-18 15:42:10 51°16.286 2°54.272 4.7 264 14.7 101700 65
2009-05-18 15:42:15 51°16.284 2°54.272 6.6 270 14.7 101700 65
2009-05-18 15:42:20 51°16.282 2°54.273 5 270 14.7 101700 65
2009-05-18 15:42:24 51°16.281 2°54.273 6.2 268 14.7 101700 65
2009-05-18 15:42:30 51°16.278 2°54.273 6.5 269 14.7 101700 65
2009-05-18 15:42:35 51°16.276 2°54.273 6.2 268 14.7 101700 65
2009-05-18 15:42:39 51°16.275 2°54.273 7.1 270 14.7 101700 65
2009-05-18 15:42:44 51°16.273 2°54.274 7.4 15 14.7 101700 65
2009-05-18 15:42:49 51°16.272 2°54.274 6 24 14.6 101700 65
2009-05-18 15:42:55 51°16.27 2°54.274 5.9 268 14.6 101700 65
2009-05-18 15:42:59 51°16.269 2°54.274 6.7 270 14.6 101700 65
2009-05-18 15:43:04 51°16.267 2°54.274 6 270 14.6 101700 65
2009-05-18 15:43:09 51°16.266 2°54.275 7.4 17 14.6 101700 65
2009-05-18 15:43:15 51°16.265 2°54.275 7.9 305 14.6 101700 65
2009-05-18 15:43:19 51°16.264 2°54.275 8 32 14.5 101700 65
2009-05-18 15:43:24 51°16.263 2°54.275 7.9 303 14.5 101700 65
2009-05-18 15:43:29 51°16.261 2°54.275 6.7 268 14.5 101700 65
2009-05-18 15:43:35 51°16.26 2°54.275 6.7 305 14.5 101700 65
2009-05-18 15:43:39 51°16.259 2°54.275 6.7 29 14.5 101700 65
2009-05-18 15:43:44 51°16.258 2°54.276 7.2 34 14.5 101700 65
2009-05-18 15:43:49 51°16.257 2°54.276 8.4 21 14.4 101710 64
2009-05-18 15:43:55 51°16.256 2°54.276 8 305 14.4 101710 64
2009-05-18 15:43:59 51°16.255 2°54.277 7.3 270 14.4 101700 64
2009-05-18 15:44:04 51°16.254 2°54.277 7 267 14.4 101700 64
2009-05-18 15:44:09 51°16.254 2°54.277 5.4 267 14.4 101690 65
2009-05-18 15:44:14 51°16.253 2°54.278 6.6 269 14.4 101690 65
2009-05-18 15:44:19 51°16.252 2°54.278 6.6 269 14.4 101700 64
2009-05-18 15:44:24 51°16.251 2°54.279 6.7 304 14.4 101700 64
2009-05-18 15:44:29 51°16.25 2°54.279 8.2 270 14.4 101700 64
2009-05-18 15:44:35 51°16.249 2°54.281 8.7 38 14.4 101700 64
2009-05-18 15:44:39 51°16.249 2°54.281 6.4 269 14.3 101700 64
2009-05-18 15:44:44 51°16.248 2°54.282 5.1 265 14.3 101700 64
2009-05-18 15:44:49 51°16.248 2°54.282 6.2 267 14.3 101690 65
2009-05-18 15:44:54 51°16.247 2°54.283 5.3 266 14.3 101690 65
2009-05-18 15:44:59 51°16.246 2°54.284 6 265 14.3 101690 65
2009-05-18 15:45:04 51°16.246 2°54.284 6.3 266 14.3 101690 65
2009-05-18 15:45:09 51°16.245 2°54.285 5.4 265 14.3 101700 65
2009-05-18 15:45:14 51°16.245 2°54.286 6.9 300 14.3 101700 65
2009-05-18 15:45:19 51°16.244 2°54.287 8.6 268 14.3 101700 65
2009-05-18 15:45:24 51°16.243 2°54.288 7.7 266 14.3 101700 65
2009-05-18 15:45:28 51°16.243 2°54.288 7.3 268 14.3 101700 65
2009-05-18 15:45:34 51°16.243 2°54.289 7.7 303 14.3 101700 65
2009-05-18 15:45:39 51°16.242 2°54.29 7.6 268 14.3 101710 65
2009-05-18 15:45:44 51°16.242 2°54.291 6.7 268 14.3 101710 65
2009-05-18 15:45:48 51°16.241 2°54.291 7.5 269 14.2 101700 65
2009-05-18 15:45:54 51°16.241 2°54.292 7.3 302 14.2 101700 65
2009-05-18 15:45:59 51°16.24 2°54.293 7.6 267 14.2 101700 64
2009-05-18 15:46:04 51°16.24 2°54.294 7.1 269 14.2 101700 64
2009-05-18 15:46:08 51°16.239 2°54.295 7.9 269 14.2 101700 64
2009-05-18 15:46:14 51°16.239 2°54.296 6.8 302 14.2 101700 64
2009-05-18 15:46:19 51°16.238 2°54.297 7.3 268 14.2 101700 64
2009-05-18 15:46:23 51°16.238 2°54.297 6.5 304 14.2 101700 64
2009-05-18 15:46:28 51°16.238 2°54.299 7.4 267 14.2 101700 65
2009-05-18 15:46:34 51°16.238 2°54.3 6.5 261 14.2 101700 65
2009-05-18 15:46:39 51°16.237 2°54.3 5.5 263 14.1 101700 64
2009-05-18 15:46:44 51°16.237 2°54.301 5.5 284 14.1 101700 64
2009-05-18 15:46:48 51°16.237 2°54.302 6.8 261 14.1 101700 64
2009-05-18 15:46:54 51°16.236 2°54.303 6.6 260 14.1 101700 64
2009-05-18 15:46:59 51°16.236 2°54.304 7.2 261 14.2 101700 65
2009-05-18 15:47:04 51°16.236 2°54.305 9.5 306 14.2 101700 65
2009-05-18 15:47:08 51°16.236 2°54.306 5.7 262 14.1 101700 65
2009-05-18 15:47:14 51°16.235 2°54.307 9.8 308 14.1 101700 65
2009-05-18 15:47:19 51°16.235 2°54.308 8.8 261 14.1 101700 65
2009-05-18 15:47:24 51°16.235 2°54.309 7.2 260 14.1 101700 65
2009-05-18 15:47:28 51°16.235 2°54.309 7.3 260 14.1 101690 65
2009-05-18 15:47:34 51°16.235 2°54.311 8.3 308 14.1 101690 65
2009-05-18 15:47:39 51°16.235 2°54.311 8.5 259 14.1 101700 65
2009-05-18 15:47:44 51°16.234 2°54.312 7 260 14.1 101700 65
2009-05-18 15:47:48 51°16.234 2°54.313 8.1 259 14.1 101700 65
2009-05-18 15:47:54 51°16.234 2°54.313 7.5 301 14.1 101700 65
2009-05-18 15:47:59 51°16.234 2°54.314 8.9 260 14.1 101700 65
2009-05-18 15:48:04 51°16.233 2°54.315 6.3 263 14.1 101700 65
2009-05-18 15:48:08 51°16.233 2°54.315 7.3 260 14.1 101700 66
2009-05-18 15:48:14 51°16.233 2°54.316 7.3 309 14.1 101700 66
2009-05-18 15:48:19 51°16.233 2°54.317 8.2 259 14.1 101700 66
2009-05-18 15:48:24 51°16.233 2°54.318 8.5 253 14.1 101700 66
2009-05-18 15:48:28 51°16.233 2°54.318 8.4 255 14.1 101690 66
2009-05-18 15:48:34 51°16.233 2°54.319 9 304 14.1 101690 66
2009-05-18 15:48:39 51°16.233 2°54.32 8.4 258 14.1 101700 66
2009-05-18 15:48:44 51°16.232 2°54.321 8.5 284 14.1 101700 66
2009-05-18 15:48:48 51°16.232 2°54.321 10 257 14.2 101700 66
2009-05-18 15:48:54 51°16.232 2°54.323 8.9 256 14.2 101700 66
2009-05-18 15:48:59 51°16.232 2°54.323 6.8 254 14.1 101700 67
2009-05-18 15:49:04 51°16.232 2°54.324 9.1 303 14.1 101700 67
2009-05-18 15:49:08 51°16.232 2°54.324 9 256 14.1 101700 66
2009-05-18 15:49:14 51°16.231 2°54.325 8.4 255 14.1 101700 66
2009-05-18 15:49:19 51°16.231 2°54.326 9.3 258 14.1 101700 66
2009-05-18 15:49:24 51°16.231 2°54.327 9.3 306 14.1 101700 66
2009-05-18 15:49:28 51°16.231 2°54.328 7.4 255 14.1 101700 67
2009-05-18 15:49:34 51°16.231 2°54.329 8.3 308 14.1 101700 67
2009-05-18 15:49:39 51°16.231 2°54.329 8.6 255 14.1 101700 67
2009-05-18 15:49:44 51°16.231 2°54.33 6.2 251 14.1 101700 67
2009-05-18 15:49:48 51°16.231 2°54.331 7.5 256 14.1 101700 66
2009-05-18 15:49:54 51°16.231 2°54.332 8.9 303 14.1 101700 66
2009-05-18 15:49:59 51°16.232 2°54.332 7.6 251 14.2 101700 66
2009-05-18 15:50:04 51°16.232 2°54.333 6.7 254 14.2 101700 66
2009-05-18 15:50:08 51°16.233 2°54.333 6.6 250 14.2 101690 67
2009-05-18 15:50:14 51°16.235 2°54.332 8.6 309 14.2 101690 67
2009-05-18 15:50:19 51°16.236 2°54.333 9.2 21 14.2 101700 67
2009-05-18 15:50:24 51°16.238 2°54.332 7.3 243 14.2 101700 67
2009-05-18 15:50:28 51°16.239 2°54.331 8.8 20 14.2 101690 67
2009-05-18 15:50:34 51°16.241 2°54.33 10.1 309 14.2 101690 67
2009-05-18 15:50:39 51°16.243 2°54.329 8.4 25 14.2 101690 67
2009-05-18 15:50:44 51°16.245 2°54.327 10.2 238 14.2 101690 67
2009-05-18 15:50:48 51°16.248 2°54.325 10.4 21 14.2 101690 67
2009-05-18 15:50:54 51°16.251 2°54.321 8.6 236 14.2 101690 67
2009-05-18 15:50:59 51°16.255 2°54.318 8.3 20 14.2 101690 67
2009-05-18 15:51:04 51°16.259 2°54.314 9.2 307 14.2 101690 67
2009-05-18 15:51:08 51°16.262 2°54.311 9.5 21 14.2 101700 66
2009-05-18 15:51:14 51°16.266 2°54.306 9.2 302 14.2 101700 66
2009-05-18 15:51:19 51°16.271 2°54.3 8.8 23 14.2 101690 66
2009-05-18 15:51:24 51°16.275 2°54.295 9.4 302 14.2 101690 66
2009-05-18 15:51:28 51°16.278 2°54.291 9.3 27 14.2 101690 66
2009-05-18 15:51:34 51°16.284 2°54.284 8.7 304 14.2 101690 66
2009-05-18 15:51:39 51°16.289 2°54.277 8.6 20 14.2 101670 67
2009-05-18 15:51:43 51°16.293 2°54.27 11.5 305 14.2 101670 67
2009-05-18 15:51:49 51°16.299 2°54.26 9.1 24 14.2 101680 66
2009-05-18 15:51:55 51°16.305 2°54.247 10.7 304 14.2 101680 66
2009-05-18 15:51:59 51°16.31 2°54.237 9.9 317 14.2 101670 66
2009-05-18 15:52:04 51°16.316 2°54.225 11 309 14.2 101670 66
2009-05-18 15:52:09 51°16.322 2°54.211 12.8 317 14.2 101670 66
2009-05-18 15:52:14 51°16.329 2°54.197 11.3 303 14.2 101670 66
2009-05-18 15:52:19 51°16.336 2°54.182 11.5 26 14.2 101680 66
2009-05-18 15:52:24 51°16.344 2°54.168 11.2 302 14.2 101680 66
2009-05-18 15:52:29 51°16.352 2°54.153 11.2 316 14.1 101660 66
2009-05-18 15:52:34 51°16.36 2°54.138 10.9 303 14.1 101660 66
2009-05-18 15:52:39 51°16.368 2°54.123 11 316 14.1 101660 66
2009-05-18 15:52:44 51°16.377 2°54.107 10.7 301 14.1 101660 66
2009-05-18 15:52:49 51°16.385 2°54.091 13.5 317 14.1 101640 66
2009-05-18 15:52:54 51°16.393 2°54.075 10.6 302 14.1 101640 66
2009-05-18 15:52:59 51°16.402 2°54.059 11.2 317 14.1 101650 66
2009-05-18 15:53:04 51°16.411 2°54.042 10.8 300 14.1 101650 66
2009-05-18 15:53:09 51°16.42 2°54.026 11.5 317 14.1 101660 66
2009-05-18 15:53:14 51°16.43 2°54.008 12.1 309 14.1 101660 66
2009-05-18 15:53:19 51°16.44 2°53.99 14.3 27 14.1 101660 66
2009-05-18 15:53:24 51°16.45 2°53.972 11.1 305 14.1 101660 66
2009-05-18 15:53:29 51°16.46 2°53.954 12.7 317 14.1 101660 66
2009-05-18 15:53:34 51°16.47 2°53.935 14.4 305 14.1 101660 66
2009-05-18 15:53:39 51°16.48 2°53.916 14.6 315 14.1 101660 66
2009-05-18 15:53:44 51°16.49 2°53.897 14.5 303 14.1 101660 66
2009-05-18 15:53:49 51°16.5 2°53.878 13.2 315 14.1 101640 66
2009-05-18 15:53:55 51°16.512 2°53.855 13.1 300 14.1 101640 66
2009-05-18 15:53:59 51°16.52 2°53.84 11.2 318 14.1 101650 66
2009-05-18 15:54:04 51°16.531 2°53.821 11.8 302 14.1 101650 66
2009-05-18 15:54:09 51°16.542 2°53.803 14.2 316 14.1 101660 66
2009-05-18 15:54:15 51°16.555 2°53.781 13.8 305 14.1 101660 66
2009-05-18 15:54:19 51°16.564 2°53.766 11.7 315 14 101640 65
2009-05-18 15:54:24 51°16.575 2°53.748 13.2 306 14 101640 65
2009-05-18 15:54:29 51°16.586 2°53.73 12.1 316 14.1 101670 66
2009-05-18 15:54:34 51°16.598 2°53.712 12.1 306 14.1 101670 66
2009-05-18 15:54:39 51°16.609 2°53.694 13 25 14.1 101650 66
2009-05-18 15:54:44 51°16.621 2°53.676 14.5 305 14.1 101650 66
2009-05-18 15:54:49 51°16.632 2°53.658 14 316 14 101660 66
2009-05-18 15:54:54 51°16.644 2°53.64 11.9 308 14 101660 66
2009-05-18 15:54:59 51°16.655 2°53.622 13.2 20 14.1 101650 66
2009-05-18 15:55:04 51°16.666 2°53.605 13.9 305 14.1 101650 66
2009-05-18 15:55:09 51°16.677 2°53.587 11.3 29 14 101650 65
2009-05-18 15:55:14 51°16.689 2°53.569 12.9 301 14 101650 65
2009-05-18 15:55:19 51°16.7 2°53.551 13.5 26 14 101660 66
2009-05-18 15:55:24 51°16.711 2°53.534 13.6 305 14 101660 66
2009-05-18 15:55:29 51°16.723 2°53.517 12.9 26 14 101650 66
2009-05-18 15:55:34 51°16.734 2°53.5 12 307 14 101650 66
2009-05-18 15:55:39 51°16.745 2°53.483 13.9 27 14 101650 66
2009-05-18 15:55:44 51°16.757 2°53.466 11.7 305 14 101650 66
2009-05-18 15:55:49 51°16.768 2°53.449 13 316 14 101640 66
2009-05-18 15:55:55 51°16.782 2°53.428 12.6 301 14 101640 66
2009-05-18 15:55:59 51°16.791 2°53.414 12 25 14 101650 66
2009-05-18 15:56:04 51°16.803 2°53.398 10.5 302 14 101650 66
2009-05-18 15:56:09 51°16.815 2°53.382 11.7 21 14 101650 66
2009-05-18 15:56:15 51°16.829 2°53.363 11.3 303 14 101650 66
2009-05-18 15:56:19 51°16.839 2°53.35 12.8 315 14 101660 66
2009-05-18 15:56:24 51°16.851 2°53.334 12.3 309 14 101660 66
2009-05-18 15:56:29 51°16.863 2°53.319 12.7 19 14 101660 67
2009-05-18 15:56:35 51°16.878 2°53.301 11.9 302 14 101660 67
2009-05-18 15:56:39 51°16.888 2°53.289 11.8 27 14 101670 66
2009-05-18 15:56:44 51°16.9 2°53.275 12.7 307 14 101670 66
2009-05-18 15:56:49 51°16.913 2°53.262 12.5 23 14 101660 66
2009-05-18 15:56:54 51°16.926 2°53.248 11.3 303 14 101660 66
2009-05-18 15:56:59 51°16.938 2°53.235 12.1 28 13.9 101650 66
2009-05-18 15:57:04 51°16.951 2°53.221 11.7 306 13.9 101650 66
2009-05-18 15:57:09 51°16.964 2°53.208 11.9 20 13.9 101660 66
2009-05-18 15:57:14 51°16.977 2°53.195 11.5 304 13.9 101660 66
2009-05-18 15:57:19 51°16.99 2°53.181 13.7 21 13.9 101680 66
2009-05-18 15:57:24 51°17.002 2°53.167 13.4 305 13.9 101680 66
2009-05-18 15:57:29 51°17.015 2°53.153 12.6 24 13.9 101660 66
2009-05-18 15:57:34 51°17.028 2°53.139 12 299 13.9 101660 66
2009-05-18 15:57:39 51°17.04 2°53.125 10.9 24 13.9 101670 66
2009-05-18 15:57:44 51°17.053 2°53.111 15 277 13.9 101670 66
2009-05-18 15:57:49 51°17.065 2°53.096 12.8 29 13.9 101670 66
2009-05-18 15:57:54 51°17.078 2°53.082 11.4 300 13.9 101670 66
2009-05-18 15:57:59 51°17.09 2°53.066 12.6 27 13.9 101660 66
2009-05-18 15:58:04 51°17.103 2°53.052 12.8 300 13.9 101660 66
2009-05-18 15:58:09 51°17.115 2°53.037 11.2 29 13.8 101670 66
2009-05-18 15:58:15 51°17.13 2°53.019 11.5 303 13.8 101670 66
2009-05-18 15:58:19 51°17.14 2°53.007 13.2 21 13.9 101670 66
2009-05-18 15:58:24 51°17.152 2°52.992 13.7 302 13.9 101670 66
2009-05-18 15:58:29 51°17.164 2°52.976 11.7 23 13.9 101660 66
2009-05-18 15:58:35 51°17.179 2°52.958 13.4 302 13.9 101660 66
2009-05-18 15:58:39 51°17.189 2°52.944 11.6 22 13.9 101670 67
2009-05-18 15:58:44 51°17.2 2°52.928 12.9 280 13.9 101670 67
2009-05-18 15:58:49 51°17.212 2°52.911 11.9 26 13.8 101660 66
2009-05-18 15:58:54 51°17.223 2°52.894 10.7 302 13.8 101660 66
2009-05-18 15:58:59 51°17.234 2°52.876 11.1 25 13.8 101720 66
2009-05-18 15:59:04 51°17.245 2°52.859 13.1 303 13.8 101720 66
2009-05-18 15:59:09 51°17.255 2°52.841 11.5 316 13.8 101690 66
2009-05-18 15:59:14 51°17.266 2°52.823 12 307 13.8 101690 66
2009-05-18 15:59:19 51°17.277 2°52.806 13.9 25 13.8 101690 67
2009-05-18 15:59:24 51°17.288 2°52.788 14.6 303 13.8 101690 67
2009-05-18 15:59:29 51°17.298 2°52.77 11.7 28 13.9 101700 67
2009-05-18 15:59:34 51°17.309 2°52.751 14.5 303 13.9 101700 67
2009-05-18 15:59:39 51°17.319 2°52.733 12.2 24 13.9 101710 67
2009-05-18 15:59:44 51°17.33 2°52.715 11.3 308 13.9 101710 67
2009-05-18 15:59:49 51°17.341 2°52.697 11 24 13.8 101690 66
2009-05-18 15:59:54 51°17.352 2°52.679 11.4 302 13.8 101690 66
2009-05-18 15:59:59 51°17.363 2°52.661 12.1 23 13.8 101690 66
2009-05-18 16:00:04 51°17.374 2°52.643 12.8 36 13.8 101690 66
2009-05-18 16:00:09 51°17.385 2°52.625 11.7 27 13.8 101700 67
2009-05-18 16:00:14 51°17.396 2°52.608 11.1 301 13.8 101700 67
2009-05-18 16:00:19 51°17.407 2°52.59 14.3 26 13.8 101690 67
2009-05-18 16:00:24 51°17.419 2°52.572 13.6 302 13.8 101690 67
2009-05-18 16:00:29 51°17.43 2°52.555 11.5 28 13.8 101700 66
2009-05-18 16:00:35 51°17.443 2°52.534 12.4 309 13.8 101700 66
2009-05-18 16:00:39 51°17.452 2°52.52 11.2 23 13.8 101700 67
2009-05-18 16:00:44 51°17.464 2°52.503 13.3 281 13.8 101700 67
2009-05-18 16:00:49 51°17.475 2°52.486 13.5 29 13.8 101690 66
2009-05-18 16:00:55 51°17.488 2°52.464 13.7 301 13.8 101690 66
2009-05-18 16:00:59 51°17.498 2°52.45 11.4 24 13.8 101700 67
2009-05-18 16:01:04 51°17.509 2°52.433 10.7 304 13.8 101700 67
2009-05-18 16:01:09 51°17.52 2°52.415 12.6 25 13.8 101700 66
2009-05-18 16:01:14 51°17.532 2°52.397 12.9 305 13.8 101700 66
2009-05-18 16:01:19 51°17.543 2°52.38 13.8 27 13.8 101690 66
2009-05-18 16:01:24 51°17.554 2°52.362 12.4 307 13.8 101690 66
2009-05-18 16:01:29 51°17.565 2°52.344 14.3 24 13.8 101690 67
2009-05-18 16:01:34 51°17.577 2°52.327 12.6 306 13.8 101690 67
2009-05-18 16:01:39 51°17.588 2°52.309 13.9 24 13.8 101690 67
2009-05-18 16:01:44 51°17.599 2°52.291 13 303 13.8 101690 67
2009-05-18 16:01:49 51°17.61 2°52.274 11.9 26 13.8 101700 66
2009-05-18 16:01:54 51°17.622 2°52.257 13.7 305 13.8 101700 66
2009-05-18 16:01:59 51°17.633 2°52.239 14.4 25 13.8 101700 67
2009-05-18 16:02:04 51°17.645 2°52.222 13.8 305 13.8 101700 67
2009-05-18 16:02:09 51°17.656 2°52.205 13.4 26 13.8 101690 67
2009-05-18 16:02:14 51°17.667 2°52.187 12.3 307 13.8 101690 67
2009-05-18 16:02:19 51°17.679 2°52.17 13.8 20 13.8 101690 67
2009-05-18 16:02:24 51°17.69 2°52.153 12 310 13.8 101690 67
2009-05-18 16:02:29 51°17.701 2°52.136 11.2 20 13.8 101690 67
2009-05-18 16:02:35 51°17.715 2°52.114 13.3 302 13.8 101690 67
2009-05-18 16:02:39 51°17.724 2°52.101 11.4 25 13.8 101690 67
2009-05-18 16:02:44 51°17.736 2°52.084 11.2 277 13.8 101690 67
2009-05-18 16:02:49 51°17.747 2°52.066 13.2 22 13.8 101690 67
2009-05-18 16:02:55 51°17.76 2°52.046 14.4 305 13.8 101690 67
2009-05-18 16:02:59 51°17.769 2°52.032 12.9 26 13.8 101690 67
2009-05-18 16:03:04 51°17.78 2°52.015 10.4 302 13.8 101690 67
2009-05-18 16:03:09 51°17.791 2°51.998 11.1 26 13.8 101690 67
2009-05-18 16:03:15 51°17.805 2°51.977 10.7 304 13.8 101690 67
2009-05-18 16:03:19 51°17.813 2°51.963 14.3 23 13.8 101700 67
2009-05-18 16:03:24 51°17.825 2°51.946 13.1 307 13.8 101700 67
2009-05-18 16:03:29 51°17.836 2°51.929 12.8 20 13.7 101690 67
2009-05-18 16:03:34 51°17.847 2°51.912 13.1 306 13.7 101690 67
2009-05-18 16:03:39 51°17.859 2°51.895 12.3 27 13.7 101690 67
2009-05-18 16:03:44 51°17.87 2°51.878 11.3 306 13.7 101690 67
2009-05-18 16:03:49 51°17.882 2°51.861 13.4 22 13.7 101690 66
2009-05-18 16:03:54 51°17.893 2°51.844 13.4 304 13.7 101690 66
2009-05-18 16:03:59 51°17.905 2°51.827 13 23 13.7 101700 67
2009-05-18 16:04:04 51°17.916 2°51.809 13.3 305 13.7 101700 67
2009-05-18 16:04:09 51°17.927 2°51.792 12.4 22 13.7 101700 67
2009-05-18 16:04:14 51°17.938 2°51.775 12.3 306 13.7 101700 67
2009-05-18 16:04:19 51°17.949 2°51.757 12.6 24 13.7 101690 67
2009-05-18 16:04:24 51°17.96 2°51.74 13.6 36 13.7 101690 67
2009-05-18 16:04:29 51°17.971 2°51.722 14.3 25 13.7 101690 67
2009-05-18 16:04:34 51°17.982 2°51.704 15.9 308 13.7 101690 67
2009-05-18 16:04:39 51°17.994 2°51.687 12.5 21 13.7 101690 67
2009-05-18 16:04:44 51°18.005 2°51.668 12.2 284 13.7 101690 67
2009-05-18 16:04:49 51°18.016 2°51.651 14.5 20 13.7 101690 67
2009-05-18 16:04:55 51°18.03 2°51.63 12 306 13.7 101690 67
2009-05-18 16:04:59 51°18.039 2°51.616 10.9 24 13.7 101690 66
2009-05-18 16:05:04 51°18.05 2°51.598 12.5 308 13.7 101690 66
2009-05-18 16:05:09 51°18.061 2°51.581 12.1 24 13.7 101690 66
2009-05-18 16:05:15 51°18.075 2°51.56 13.7 303 13.7 101690 66
2009-05-18 16:05:19 51°18.084 2°51.546 13.6 26 13.7 101690 67
2009-05-18 16:05:24 51°18.095 2°51.528 11.7 305 13.7 101690 67
2009-05-18 16:05:29 51°18.107 2°51.511 14.7 27 13.7 101700 67
2009-05-18 16:05:35 51°18.121 2°51.49 12.7 301 13.7 101700 67
2009-05-18 16:05:39 51°18.13 2°51.476 11.8 29 13.7 101690 67
2009-05-18 16:05:44 51°18.141 2°51.458 13.9 300 13.7 101690 67
2009-05-18 16:05:49 51°18.153 2°51.441 11.5 27 13.7 101690 67
2009-05-18 16:05:54 51°18.164 2°51.423 14.4 303 13.7 101690 67
2009-05-18 16:05:59 51°18.176 2°51.405 12.3 21 13.7 101690 67
2009-05-18 16:06:04 51°18.187 2°51.387 11.3 310 13.7 101690 67
2009-05-18 16:06:09 51°18.198 2°51.369 13.2 21 13.7 101690 67
2009-05-18 16:06:14 51°18.21 2°51.352 13.5 303 13.7 101690 67
2009-05-18 16:06:19 51°18.222 2°51.335 13.5 21 13.7 101700 67
2009-05-18 16:06:24 51°18.233 2°51.318 14.9 307 13.7 101700 67
2009-05-18 16:06:29 51°18.245 2°51.3 13.3 20 13.7 101690 67
2009-05-18 16:06:35 51°18.259 2°51.279 11.4 300 13.7 101690 67
2009-05-18 16:06:39 51°18.268 2°51.265 14.2 24 13.8 101700 67
2009-05-18 16:06:44 51°18.28 2°51.248 14.8 278 13.8 101700 67
2009-05-18 16:06:49 51°18.291 2°51.23 13.9 28 13.7 101690 66
2009-05-18 16:06:55 51°18.305 2°51.209 14 304 13.7 101690 66
2009-05-18 16:06:59 51°18.314 2°51.195 12 25 13.7 101690 66
2009-05-18 16:07:04 51°18.326 2°51.177 11.9 304 13.7 101690 66
2009-05-18 16:07:09 51°18.337 2°51.159 14.4 23 13.7 101690 66
2009-05-18 16:07:15 51°18.351 2°51.14 12.9 301 13.7 101690 66
2009-05-18 16:07:19 51°18.359 2°51.127 11.7 26 13.7 101690 66
2009-05-18 16:07:24 51°18.369 2°51.112 8.8 304 13.7 101690 66
2009-05-18 16:07:29 51°18.379 2°51.099 9.9 27 13.7 101690 67
2009-05-18 16:07:35 51°18.39 2°51.086 9.9 303 13.7 101690 67
2009-05-18 16:07:39 51°18.396 2°51.076 12.3 21 13.7 101700 66
2009-05-18 16:07:44 51°18.403 2°51.066 10.3 308 13.7 101700 66
2009-05-18 16:07:49 51°18.41 2°51.056 11.2 26 13.8 101690 67
2009-05-18 16:07:55 51°18.417 2°51.045 10 302 13.8 101690 67
2009-05-18 16:07:59 51°18.422 2°51.038 10.5 25 13.7 101690 67
2009-05-18 16:08:04 51°18.427 2°51.03 10.8 309 13.7 101690 67
2009-05-18 16:08:09 51°18.432 2°51.022 12.1 27 13.8 101690 67
2009-05-18 16:08:14 51°18.437 2°51.015 8.8 309 13.8 101690 67
2009-05-18 16:08:19 51°18.441 2°51.01 10.2 21 13.8 101690 67
2009-05-18 16:08:24 51°18.446 2°51.004 8.3 304 13.8 101690 67
2009-05-18 16:08:29 51°18.45 2°50.999 10.2 247 13.8 101690 67
2009-05-18 16:08:34 51°18.454 2°50.995 9.6 307 13.8 101690 67
2009-05-18 16:08:39 51°18.458 2°50.991 9.2 26 13.8 101700 67
2009-05-18 16:08:44 51°18.461 2°50.988 10.5 281 13.8 101700 67
2009-05-18 16:08:49 51°18.464 2°50.985 8.9 21 13.8 101690 67
2009-05-18 16:08:54 51°18.466 2°50.983 9.6 309 13.8 101690 67
2009-05-18 16:08:59 51°18.468 2°50.981 10.5 246 13.8 101700 67
2009-05-18 16:09:04 51°18.47 2°50.979 10.1 244 13.8 101700 67
2009-05-18 16:09:09 51°18.471 2°50.977 8.6 25 13.8 101700 67
2009-05-18 16:09:15 51°18.473 2°50.975 7.7 302 13.8 101700 67
2009-05-18 16:09:19 51°18.474 2°50.973 7.8 21 13.8 101690 67
2009-05-18 16:09:24 51°18.475 2°50.971 10.7 304 13.8 101690 67
2009-05-18 16:09:29 51°18.477 2°50.97 8.4 22 13.8 101700 67
2009-05-18 16:09:35 51°18.478 2°50.968 9.2 310 13.8 101700 67
2009-05-18 16:09:39 51°18.478 2°50.967 11.2 24 13.8 101700 67
2009-05-18 16:09:44 51°18.479 2°50.966 10.7 303 13.8 101700 67
2009-05-18 16:09:49 51°18.48 2°50.966 10.8 26 13.8 101700 67
2009-05-18 16:09:55 51°18.48 2°50.965 11 302 13.8 101700 67
2009-05-18 16:09:59 51°18.481 2°50.964 10.9 20 13.8 101690 66
2009-05-18 16:10:04 51°18.481 2°50.964 8.1 304 13.8 101690 66
2009-05-18 16:10:09 51°18.482 2°50.963 8.4 24 13.8 101690 66
2009-05-18 16:10:15 51°18.482 2°50.963 11.2 304 13.8 101690 66
2009-05-18 16:10:19 51°18.483 2°50.963 8.7 27 13.8 101690 66
2009-05-18 16:10:24 51°18.483 2°50.962 8.8 305 13.8 101690 66
2009-05-18 16:10:29 51°18.484 2°50.962 9.8 21 13.8 101690 66
2009-05-18 16:10:34 51°18.484 2°50.962 8.3 301 13.8 101690 66
2009-05-18 16:10:39 51°18.484 2°50.962 7.9 20 13.8 101700 65
2009-05-18 16:10:44 51°18.485 2°50.963 10.2 287 13.8 101700 65
2009-05-18 16:10:49 51°18.485 2°50.963 9.7 26 13.8 101700 66
2009-05-18 16:10:55 51°18.486 2°50.963 10.8 308 13.8 101700 66
2009-05-18 16:10:59 51°18.486 2°50.964 10.2 22 13.8 101700 66
2009-05-18 16:11:04 51°18.486 2°50.964 8.8 248 13.8 101700 66
2009-05-18 16:11:09 51°18.487 2°50.965 9.2 247 13.8 101700 66
2009-05-18 16:11:15 51°18.487 2°50.965 8.9 306 13.8 101700 66
2009-05-18 16:11:19 51°18.487 2°50.966 10.2 248 13.9 101700 66
2009-05-18 16:11:24 51°18.487 2°50.966 9.6 248 13.9 101700 66
2009-05-18 16:11:29 51°18.488 2°50.967 9.7 249 13.9 101700 65
2009-05-18 16:11:35 51°18.488 2°50.968 9.4 307 13.9 101700 65
2009-05-18 16:11:39 51°18.488 2°50.969 9.2 250 13.8 101700 65
2009-05-18 16:11:44 51°18.489 2°50.97 9.5 308 13.8 101700 65
2009-05-18 16:11:49 51°18.489 2°50.971 7.6 249 13.8 101700 65
2009-05-18 16:11:55 51°18.489 2°50.972 9.8 304 13.8 101700 65
2009-05-18 16:11:59 51°18.489 2°50.973 9.8 251 13.8 101700 65
2009-05-18 16:12:04 51°18.489 2°50.974 9.8 304 13.8 101700 65
2009-05-18 16:12:09 51°18.489 2°50.975 11.1 257 13.9 101710 65
2009-05-18 16:12:15 51°18.489 2°50.976 9.6 302 13.9 101710 65
2009-05-18 16:12:19 51°18.489 2°50.977 8.5 257 13.9 101710 65
2009-05-18 16:12:24 51°18.489 2°50.978 9.6 303 13.9 101710 65
2009-05-18 16:12:29 51°18.489 2°50.979 9.4 256 13.9 101700 65
2009-05-18 16:12:34 51°18.489 2°50.98 6.7 310 13.9 101700 65
2009-05-18 16:12:39 51°18.489 2°50.981 9.7 259 13.9 101710 65
2009-05-18 16:12:44 51°18.489 2°50.982 10.4 281 13.9 101710 65
2009-05-18 16:12:49 51°18.489 2°50.983 9.1 256 13.9 101710 66
2009-05-18 16:12:54 51°18.489 2°50.984 8.4 302 13.9 101710 66
2009-05-18 16:12:59 51°18.489 2°50.985 10.5 258 13.9 101700 66
2009-05-18 16:13:04 51°18.488 2°50.986 7.1 310 13.9 101700 66
2009-05-18 16:13:09 51°18.488 2°50.987 8.5 259 13.9 101700 67
2009-05-18 16:13:15 51°18.488 2°50.988 9.3 305 13.9 101700 67
2009-05-18 16:13:19 51°18.488 2°50.989 9.4 260 13.9 101700 66
2009-05-18 16:13:24 51°18.488 2°50.99 9.8 258 13.9 101700 66
2009-05-18 16:13:29 51°18.487 2°50.991 7.4 261 14 101710 67
2009-05-18 16:13:35 51°18.487 2°50.993 8.5 303 14 101710 67
2009-05-18 16:13:39 51°18.487 2°50.994 8.2 260 14 101710 66
2009-05-18 16:13:44 51°18.487 2°50.995 9.4 304 14 101710 66
2009-05-18 16:13:49 51°18.487 2°50.996 7.4 262 14 101700 66
2009-05-18 16:13:55 51°18.486 2°50.997 7.1 302 14 101700 66
2009-05-18 16:13:59 51°18.486 2°50.998 8.9 260 14 101700 67
2009-05-18 16:14:04 51°18.486 2°51 8.4 308 14 101700 67
2009-05-18 16:14:09 51°18.486 2°51.001 8.4 262 14 101690 66
2009-05-18 16:14:15 51°18.485 2°51.002 7 304 14 101690 66
2009-05-18 16:14:19 51°18.485 2°51.003 5.4 265 13.9 101700 66
2009-05-18 16:14:24 51°18.485 2°51.004 6 307 13.9 101700 66
2009-05-18 16:14:29 51°18.484 2°51.005 6.2 263 13.9 101710 65
2009-05-18 16:14:35 51°18.484 2°51.006 7.2 302 13.9 101710 65
2009-05-18 16:14:39 51°18.484 2°51.007 6.5 266 13.9 101710 65
2009-05-18 16:14:44 51°18.483 2°51.008 8.7 278 13.9 101710 65
2009-05-18 16:14:49 51°18.483 2°51.009 6.8 265 13.9 101710 65
2009-05-18 16:14:55 51°18.483 2°51.01 5.8 264 13.9 101710 65
2009-05-18 16:14:59 51°18.482 2°51.012 5.5 265 13.9 101700 65
2009-05-18 16:15:04 51°18.482 2°51.013 5.9 302 13.9 101700 65
2009-05-18 16:15:09 51°18.482 2°51.014 6.4 266 13.9 101700 65
2009-05-18 16:15:14 51°18.482 2°51.015 7.3 307 13.9 101700 65
2009-05-18 16:15:19 51°18.482 2°51.016 5 266 13.9 101700 65
2009-05-18 16:15:24 51°18.483 2°51.017 5.8 302 13.9 101700 65
2009-05-18 16:15:29 51°18.484 2°51.019 7 269 13.9 101720 65
2009-05-18 16:15:35 51°18.485 2°51.02 6.6 301 13.9 101720 65
2009-05-18 16:15:39 51°18.486 2°51.021 7.1 266 13.9 101710 66
2009-05-18 16:15:44 51°18.487 2°51.023 6 267 13.9 101710 66
2009-05-18 16:15:49 51°18.489 2°51.024 7.2 267 13.9 101700 66
2009-05-18 16:15:55 51°18.49 2°51.026 8.9 54 13.9 101700 66
2009-05-18 16:15:59 51°18.492 2°51.028 7.4 27 13.9 101700 65
2009-05-18 16:16:04 51°18.494 2°51.03 7.4 56 13.9 101700 65
2009-05-18 16:16:09 51°18.496 2°51.033 7.4 24 13.9 101710 66
2009-05-18 16:16:15 51°18.499 2°51.037 6.2 57 13.9 101710 66
2009-05-18 16:16:19 51°18.502 2°51.04 5.8 25 13.8 101700 64
2009-05-18 16:16:24 51°18.505 2°51.045 6.8 57 13.8 101700 64
2009-05-18 16:16:29 51°18.508 2°51.05 6.2 23 13.8 101700 65
2009-05-18 16:16:35 51°18.512 2°51.058 5.2 55 13.8 101700 65
2009-05-18 16:16:39 51°18.514 2°51.063 6.6 22 13.8 101700 65
2009-05-18 16:16:44 51°18.517 2°51.07 5.9 80 13.8 101700 65
2009-05-18 16:16:49 51°18.52 2°51.078 5.5 23 13.8 101700 66
2009-05-18 16:16:55 51°18.523 2°51.089 4.5 39 13.8 101700 66
2009-05-18 16:16:59 51°18.526 2°51.097 3.8 27 13.9 101700 66
2009-05-18 16:17:04 51°18.528 2°51.108 2.7 51 13.9 101700 66
2009-05-18 16:17:09 51°18.53 2°51.12 2.9 27 13.8 101690 65
2009-05-18 16:17:15 51°18.533 2°51.134 2.4 37 13.8 101690 65
2009-05-18 16:17:19 51°18.535 2°51.145 2.4 19 13.8 101700 65
2009-05-18 16:17:24 51°18.538 2°51.158 3.5 51 13.8 101700 65
2009-05-18 16:17:29 51°18.54 2°51.172 3.2 29 13.9 101690 67
2009-05-18 16:17:35 51°18.544 2°51.189 2.4 57 13.9 101690 67
2009-05-18 16:17:39 51°18.546 2°51.2 2.6 20 14 101690 67
2009-05-18 16:17:44 51°18.549 2°51.215 3.4 38 14 101690 67
2009-05-18 16:17:49 51°18.552 2°51.229 2.6 22 14 101690 65
2009-05-18 16:17:55 51°18.556 2°51.247 2.9 58 14 101690 65
2009-05-18 16:17:59 51°18.559 2°51.26 3.5 21 14.1 101690 66
2009-05-18 16:18:04 51°18.562 2°51.276 2.8 40 14.1 101690 66
2009-05-18 16:18:09 51°18.566 2°51.293 2.6 26 14.2 101690 65
2009-05-18 16:18:15 51°18.57 2°51.315 2.9 59 14.2 101690 65
2009-05-18 16:18:19 51°18.573 2°51.33 3.6 20 14.3 101690 66
2009-05-18 16:18:24 51°18.577 2°51.349 3.8 58 14.3 101690 66
2009-05-18 16:18:29 51°18.582 2°51.368 3.6 20 14.4 101690 64
2009-05-18 16:18:35 51°18.585 2°51.393 1.8 51 14.4 101690 64
2009-05-18 16:18:39 51°18.591 2°51.409 3 27 14.4 101690 63
2009-05-18 16:18:44 51°18.593 2°51.431 2.6 84 14.4 101690 63
2009-05-18 16:18:49 51°18.6 2°51.451 2.9 27 14.4 101690 63
2009-05-18 16:18:55 51°18.604 2°51.479 2 57 14.4 101690 63
2009-05-18 16:18:59 51°18.609 2°51.495 2.6 26 14.5 101690 63
2009-05-18 16:19:04 51°18.614 2°51.518 1.5 50 14.5 101690 63
2009-05-18 16:19:09 51°18.618 2°51.542 1.3 29 14.4 101690 63
2009-05-18 16:19:15 51°18.625 2°51.569 0.9 31 14.4 101690 63
2009-05-18 16:19:19 51°18.629 2°51.589 1.2 25 14.5 101690 63
2009-05-18 16:19:24 51°18.634 2°51.613 1 312 14.5 101690 63
2009-05-18 16:19:29 51°18.64 2°51.637 1.3 21 14.5 101690 64
2009-05-18 16:19:34 51°18.644 2°51.661 1.1 53 14.5 101690 64
2009-05-18 16:19:39 51°18.651 2°51.685 2.1 29 14.5 101690 64
2009-05-18 16:19:44 51°18.656 2°51.71 2.2 59 14.5 101690 64
2009-05-18 16:19:49 51°18.661 2°51.734 3.2 24 14.5 101700 64
2009-05-18 16:19:55 51°18.667 2°51.763 2.6 57 14.5 101700 64
2009-05-18 16:19:59 51°18.672 2°51.783 2.2 21 14.5 101690 64
2009-05-18 16:20:04 51°18.677 2°51.807 2.1 31 14.5 101690 64
2009-05-18 16:20:09 51°18.682 2°51.831 1.8 28 14.5 101690 63
2009-05-18 16:20:15 51°18.689 2°51.861 1.5 61 14.5 101690 63
2009-05-18 16:20:19 51°18.693 2°51.881 1.5 261 14.5 101690 63
2009-05-18 16:20:24 51°18.7 2°51.905 1.5 57 14.5 101690 63
2009-05-18 16:20:29 51°18.704 2°51.93 1.9 25 14.5 101690 63
2009-05-18 16:20:35 51°18.712 2°51.959 3 57 14.5 101690 63
2009-05-18 16:20:39 51°18.715 2°51.979 2.5 19 14.5 101690 63
2009-05-18 16:20:44 51°18.722 2°52.003 2.2 80 14.5 101690 63
2009-05-18 16:20:49 51°18.726 2°52.028 1.5 25 14.5 101690 63
2009-05-18 16:20:55 51°18.733 2°52.058 1.7 57 14.5 101690 63
2009-05-18 16:20:59 51°18.737 2°52.078 1.8 25 14.5 101690 62
2009-05-18 16:21:04 51°18.744 2°52.102 2.8 57 14.5 101690 62
2009-05-18 16:21:09 51°18.748 2°52.128 1.6 26 14.5 101690 62
2009-05-18 16:21:15 51°18.756 2°52.158 1.8 55 14.5 101690 62
2009-05-18 16:21:19 51°18.759 2°52.177 1.8 28 14.5 101690 62
2009-05-18 16:21:24 51°18.764 2°52.202 1.3 53 14.5 101690 62
2009-05-18 16:21:29 51°18.77 2°52.227 1.6 23 14.5 101690 62
2009-05-18 16:21:35 51°18.775 2°52.256 1.9 38 14.5 101690 62
2009-05-18 16:21:39 51°18.778 2°52.276 1.5 20 14.5 101690 62
2009-05-18 16:21:44 51°18.785 2°52.3 1.3 51 14.5 101690 62
2009-05-18 16:21:49 51°18.789 2°52.325 1.2 27 14.5 101690 62
2009-05-18 16:21:54 51°18.795 2°52.349 1.6 52 14.5 101690 62
2009-05-18 16:21:59 51°18.8 2°52.374 1 24 14.5 101690 63
2009-05-18 16:22:04 51°18.806 2°52.398 0.9 301 14.5 101690 63
2009-05-18 16:22:09 51°18.811 2°52.423 1.1 34 14.5 101690 63
2009-05-18 16:22:15 51°18.818 2°52.452 2.4 59 14.5 101690 63
2009-05-18 16:22:19 51°18.822 2°52.473 1.9 20 14.6 101690 63
2009-05-18 16:22:24 51°18.829 2°52.498 2.3 42 14.6 101690 63
2009-05-18 16:22:29 51°18.834 2°52.523 2.2 28 14.6 101690 64
2009-05-18 16:22:35 51°18.841 2°52.553 2.1 53 14.6 101690 64
2009-05-18 16:22:39 51°18.846 2°52.572 2 28 14.6 101690 63
2009-05-18 16:22:44 51°18.851 2°52.598 1.6 269 14.6 101690 63
2009-05-18 16:22:49 51°18.858 2°52.622 1.7 266 14.5 101690 63
2009-05-18 16:22:55 51°18.864 2°52.652 1.3 56 14.5 101690 63
2009-05-18 16:22:59 51°18.869 2°52.671 2.3 23 14.5 101690 62
2009-05-18 16:23:04 51°18.875 2°52.695 2.2 52 14.5 101690 62
2009-05-18 16:23:09 51°18.88 2°52.719 2.6 28 14.6 101690 62
2009-05-18 16:23:15 51°18.887 2°52.748 2.3 59 14.6 101690 62
2009-05-18 16:23:19 51°18.891 2°52.768 2.4 26 14.6 101690 63
2009-05-18 16:23:24 51°18.896 2°52.792 2.8 59 14.6 101690 63
2009-05-18 16:23:29 51°18.902 2°52.817 2.5 28 14.6 101690 63
2009-05-18 16:23:35 51°18.909 2°52.847 2.3 39 14.6 101690 63
2009-05-18 16:23:39 51°18.913 2°52.866 1.9 26 14.6 101690 62
2009-05-18 16:23:44 51°18.918 2°52.89 2.6 53 14.6 101690 62
2009-05-18 16:23:49 51°18.924 2°52.915 2.6 28 14.5 101690 62
2009-05-18 16:23:54 51°18.929 2°52.939 1.7 50 14.5 101690 62
2009-05-18 16:23:59 51°18.933 2°52.964 1.7 23 14.5 101690 61
2009-05-18 16:24:04 51°18.94 2°52.988 1.6 52 14.5 101690 61
2009-05-18 16:24:09 51°18.945 2°53.012 1.3 26 14.5 101690 61
2009-05-18 16:24:15 51°18.952 2°53.042 1.9 52 14.5 101690 61
2009-05-18 16:24:19 51°18.955 2°53.062 1.7 23 14.5 101690 62
2009-05-18 16:24:24 51°18.962 2°53.086 1.1 42 14.5 101690 62
2009-05-18 16:24:29 51°18.966 2°53.112 0.8 22 14.5 101690 62
2009-05-18 16:24:35 51°18.974 2°53.141 1.4 61 14.5 101690 62
2009-05-18 16:24:39 51°18.977 2°53.162 1 24 14.5 101690 62
2009-05-18 16:24:44 51°18.984 2°53.186 1.4 38 14.5 101690 62
2009-05-18 16:24:49 51°18.988 2°53.211 1.3 20 14.5 101690 62
2009-05-18 16:24:55 51°18.994 2°53.241 1 53 14.5 101690 62
2009-05-18 16:24:59 51°18.998 2°53.261 0.9 30 14.5 101690 63
2009-05-18 16:25:04 51°19.004 2°53.286 1 37 14.5 101690 63
2009-05-18 16:25:09 51°19.009 2°53.311 1.3 31 14.6 101690 63
2009-05-18 16:25:15 51°19.015 2°53.341 0.9 60 14.6 101690 63
2009-05-18 16:25:19 51°19.019 2°53.361 0.7 23 14.6 101690 63
2009-05-18 16:25:24 51°19.024 2°53.386 0.4 55 14.6 101690 63
2009-05-18 16:25:29 51°19.029 2°53.41 0.6 22 14.6 101690 63
2009-05-18 16:25:35 51°19.034 2°53.441 1 59 14.6 101690 63
2009-05-18 16:25:39 51°19.039 2°53.461 1.7 28 14.6 101690 63
2009-05-18 16:25:44 51°19.043 2°53.487 1.6 82 14.6 101690 63
2009-05-18 16:25:49 51°19.048 2°53.511 1.1 30 14.7 101690 64
2009-05-18 16:25:55 51°19.054 2°53.542 2 34 14.7 101690 64
2009-05-18 16:25:59 51°19.058 2°53.562 3.2 27 14.7 101690 64
2009-05-18 16:26:04 51°19.061 2°53.587 3.6 53 14.7 101690 64
2009-05-18 16:26:09 51°19.067 2°53.61 2 28 14.7 101690 64
2009-05-18 16:26:14 51°19.07 2°53.637 3.1 57 14.7 101690 64
2009-05-18 16:26:19 51°19.077 2°53.661 2.8 25 14.7 101690 63
2009-05-18 16:26:24 51°19.079 2°53.687 1.6 52 14.7 101690 63
2009-05-18 16:26:29 51°19.086 2°53.711 1 27 14.7 101690 61
2009-05-18 16:26:35 51°19.09 2°53.742 1.6 57 14.7 101690 61
2009-05-18 16:26:39 51°19.094 2°53.762 1.5 21 14.7 101690 62
2009-05-18 16:26:44 51°19.098 2°53.787 1.8 41 14.7 101690 62
2009-05-18 16:26:49 51°19.103 2°53.813 1.3 22 14.7 101690 62
2009-05-18 16:26:55 51°19.109 2°53.844 1.4 52 14.7 101690 62
2009-05-18 16:26:59 51°19.112 2°53.865 0.8 26 14.7 101690 62
2009-05-18 16:27:04 51°19.117 2°53.89 0.8 40 14.7 101690 62
2009-05-18 16:27:09 51°19.122 2°53.916 0.6 21 14.7 101690 62
2009-05-18 16:27:15 51°19.127 2°53.947 0.7 50 14.7 101690 62
2009-05-18 16:27:19 51°19.131 2°53.967 0.6 28 14.7 101690 63
2009-05-18 16:27:24 51°19.136 2°53.993 0.9 60 14.7 101690 63
2009-05-18 16:27:29 51°19.14 2°54.018 0.8 29 14.7 101690 63
2009-05-18 16:27:35 51°19.146 2°54.048 0.9 58 14.7 101690 63
2009-05-18 16:27:39 51°19.15 2°54.069 1.1 22 14.8 101690 63
2009-05-18 16:27:44 51°19.154 2°54.095 2.2 84 14.8 101690 63
2009-05-18 16:27:49 51°19.158 2°54.12 2.8 19 14.8 101690 63
2009-05-18 16:27:55 51°19.163 2°54.151 2 54 14.8 101690 63
2009-05-18 16:27:59 51°19.167 2°54.172 1.7 21 14.8 101690 63
2009-05-18 16:28:04 51°19.172 2°54.196 1.6 33 14.8 101690 63
2009-05-18 16:28:09 51°19.175 2°54.222 1.7 23 14.8 101690 62
2009-05-18 16:28:15 51°19.182 2°54.251 1.3 33 14.8 101690 62
2009-05-18 16:28:19 51°19.185 2°54.271 2.2 29 14.8 101690 62
2009-05-18 16:28:24 51°19.19 2°54.296 2.1 58 14.8 101690 62
2009-05-18 16:28:29 51°19.194 2°54.321 2.1 43 14.8 101690 63
2009-05-18 16:28:34 51°19.199 2°54.347 2.9 59 14.8 101690 63
2009-05-18 16:28:39 51°19.205 2°54.371 3.8 22 14.8 101690 62
2009-05-18 16:28:44 51°19.209 2°54.396 3.2 76 14.8 101690 62
2009-05-18 16:28:49 51°19.214 2°54.422 2.8 27 14.8 101690 62
2009-05-18 16:28:55 51°19.22 2°54.452 2.6 60 14.8 101690 62
2009-05-18 16:28:59 51°19.225 2°54.471 2.9 20 14.8 101690 61
2009-05-18 16:29:04 51°19.228 2°54.497 2.8 39 14.8 101690 61
2009-05-18 16:29:09 51°19.235 2°54.522 2.6 26 14.8 101690 60
2009-05-18 16:29:15 51°19.24 2°54.552 3.2 56 14.8 101690 60
2009-05-18 16:29:19 51°19.244 2°54.572 2.9 19 14.8 101690 59
2009-05-18 16:29:24 51°19.249 2°54.598 2.8 40 14.8 101690 59
2009-05-18 16:29:29 51°19.254 2°54.623 2.3 28 14.7 101690 59
2009-05-18 16:29:35 51°19.26 2°54.654 2.8 50 14.7 101690 59
2009-05-18 16:29:39 51°19.264 2°54.674 3.2 20 14.7 101690 60
2009-05-18 16:29:44 51°19.269 2°54.699 2.8 58 14.7 101690 60
2009-05-18 16:29:49 51°19.273 2°54.725 2.2 28 14.7 101690 60
2009-05-18 16:29:55 51°19.28 2°54.755 2.6 58 14.7 101690 60
2009-05-18 16:29:59 51°19.283 2°54.776 2.2 23 14.7 101690 60
2009-05-18 16:30:04 51°19.289 2°54.801 2.9 58 14.7 101690 60
2009-05-18 16:30:09 51°19.293 2°54.826 1.7 19 14.7 101690 60
2009-05-18 16:30:15 51°19.299 2°54.856 3 30 14.7 101690 60
2009-05-18 16:30:19 51°19.303 2°54.876 2.5 18 14.7 101690 60
2009-05-18 16:30:24 51°19.307 2°54.902 2.4 56 14.7 101690 60
2009-05-18 16:30:29 51°19.313 2°54.926 2.8 23 14.7 101690 60
2009-05-18 16:30:34 51°19.317 2°54.952 1.9 58 14.7 101690 60
2009-05-18 16:30:39 51°19.322 2°54.977 2.2 28 14.7 101690 61
2009-05-18 16:30:44 51°19.326 2°55.003 2.3 73 14.7 101690 61
2009-05-18 16:30:49 51°19.331 2°55.029 1.8 21 14.7 101690 61
2009-05-18 16:30:55 51°19.336 2°55.06 1.9 31 14.7 101690 61
2009-05-18 16:30:59 51°19.34 2°55.08 2.3 19 14.6 101690 61
2009-05-18 16:31:04 51°19.344 2°55.106 1.8 35 14.6 101690 61
2009-05-18 16:31:09 51°19.349 2°55.132 2.2 28 14.6 101690 62
2009-05-18 16:31:15 51°19.354 2°55.163 1.7 57 14.6 101690 62
2009-05-18 16:31:19 51°19.358 2°55.184 2.9 28 14.6 101690 62
2009-05-18 16:31:24 51°19.362 2°55.209 2.8 34 14.6 101690 62
2009-05-18 16:31:29 51°19.367 2°55.235 2.3 25 14.6 101690 62
2009-05-18 16:31:35 51°19.373 2°55.265 3.1 51 14.6 101690 62
2009-05-18 16:31:39 51°19.376 2°55.285 2.6 29 14.6 101690 62
2009-05-18 16:31:44 51°19.38 2°55.311 2.3 37 14.6 101690 62
2009-05-18 16:31:49 51°19.386 2°55.336 2.2 26 14.6 101690 62
2009-05-18 16:31:55 51°19.391 2°55.366 1.5 54 14.6 101690 62
2009-05-18 16:31:59 51°19.395 2°55.387 2.1 28 14.6 101690 62
2009-05-18 16:32:04 51°19.401 2°55.412 2.6 30 14.6 101690 62
2009-05-18 16:32:09 51°19.405 2°55.437 1.9 21 14.6 101690 62
2009-05-18 16:32:15 51°19.411 2°55.467 3.2 59 14.6 101690 62
2009-05-18 16:32:19 51°19.416 2°55.487 2.4 28 14.6 101680 63
2009-05-18 16:32:24 51°19.42 2°55.513 2.5 51 14.6 101680 63
2009-05-18 16:32:29 51°19.425 2°55.538 2.9 22 14.6 101680 63
2009-05-18 16:32:35 51°19.43 2°55.569 2.5 39 14.6 101680 63
2009-05-18 16:32:39 51°19.434 2°55.589 3 20 14.6 101690 62
2009-05-18 16:32:44 51°19.438 2°55.614 2 73 14.6 101690 62
2009-05-18 16:32:49 51°19.444 2°55.639 2.9 28 14.6 101680 62
2009-05-18 16:32:55 51°19.449 2°55.67 1.8 38 14.6 101680 62
2009-05-18 16:32:59 51°19.453 2°55.69 2.7 26 14.6 101690 61
2009-05-18 16:33:04 51°19.459 2°55.715 2.6 52 14.6 101690 61
2009-05-18 16:33:09 51°19.462 2°55.741 2.1 27 14.5 101680 62
2009-05-18 16:33:15 51°19.47 2°55.77 2.7 51 14.5 101680 62
2009-05-18 16:33:19 51°19.472 2°55.791 2.8 27 14.5 101690 61
2009-05-18 16:33:24 51°19.476 2°55.816 3.7 38 14.5 101690 61
2009-05-18 16:33:29 51°19.482 2°55.841 3.1 24 14.5 101690 61
2009-05-18 16:33:35 51°19.487 2°55.871 2.9 57 14.5 101690 61
2009-05-18 16:33:39 51°19.491 2°55.891 2.5 25 14.5 101680 61
2009-05-18 16:33:44 51°19.496 2°55.917 3 35 14.5 101680 61
2009-05-18 16:33:49 51°19.501 2°55.943 2.4 21 14.5 101690 61
2009-05-18 16:33:55 51°19.506 2°55.973 3.1 50 14.5 101690 61
2009-05-18 16:33:59 51°19.511 2°55.993 3.2 21 14.5 101680 60
2009-05-18 16:34:04 51°19.515 2°56.019 2.5 32 14.5 101680 60
2009-05-18 16:34:09 51°19.52 2°56.045 2.6 28 14.4 101680 61
2009-05-18 16:34:15 51°19.525 2°56.076 2 53 14.4 101680 61
2009-05-18 16:34:19 51°19.528 2°56.097 1.8 21 14.4 101690 62
2009-05-18 16:34:24 51°19.535 2°56.123 2.2 56 14.4 101690 62
2009-05-18 16:34:29 51°19.539 2°56.147 2.3 27 14.4 101680 62
2009-05-18 16:34:35 51°19.543 2°56.177 2.5 51 14.4 101680 62
2009-05-18 16:34:39 51°19.548 2°56.198 2 22 14.4 101690 62
2009-05-18 16:34:44 51°19.553 2°56.223 2.3 84 14.4 101690 62
2009-05-18 16:34:49 51°19.557 2°56.247 1.5 23 14.4 101680 62
2009-05-18 16:34:55 51°19.563 2°56.278 2.1 37 14.4 101680 62
2009-05-18 16:34:59 51°19.567 2°56.298 1.8 18 14.4 101690 62
2009-05-18 16:35:04 51°19.571 2°56.323 1.3 60 14.4 101690 62
2009-05-18 16:35:09 51°19.575 2°56.348 2.3 21 14.4 101680 62
2009-05-18 16:35:15 51°19.581 2°56.379 1.4 37 14.4 101680 62
2009-05-18 16:35:19 51°19.584 2°56.399 1.3 26 14.4 101680 62
2009-05-18 16:35:24 51°19.589 2°56.424 1.8 56 14.4 101680 62
2009-05-18 16:35:29 51°19.594 2°56.449 2.1 22 14.4 101680 62
2009-05-18 16:35:35 51°19.599 2°56.48 1.6 59 14.4 101680 62
2009-05-18 16:35:39 51°19.603 2°56.5 2.8 26 14.4 101690 62
2009-05-18 16:35:44 51°19.608 2°56.526 1.4 39 14.4 101690 62
2009-05-18 16:35:49 51°19.612 2°56.551 1.9 21 14.4 101680 62
2009-05-18 16:35:55 51°19.618 2°56.582 1.8 57 14.4 101680 62
2009-05-18 16:35:59 51°19.623 2°56.602 2.1 19 14.4 101680 63
2009-05-18 16:36:04 51°19.627 2°56.627 1.5 38 14.4 101680 63
2009-05-18 16:36:09 51°19.631 2°56.652 1.8 20 14.4 101680 63
2009-05-18 16:36:15 51°19.638 2°56.682 2.9 50 14.4 101680 63
2009-05-18 16:36:19 51°19.64 2°56.702 2.3 22 14.5 101680 63
2009-05-18 16:36:24 51°19.645 2°56.727 1.7 40 14.5 101680 63
2009-05-18 16:36:29 51°19.649 2°56.753 2 21 14.5 101680 63
2009-05-18 16:36:35 51°19.656 2°56.782 2.9 59 14.5 101680 63
2009-05-18 16:36:39 51°19.658 2°56.802 2.5 19 14.5 101680 63
2009-05-18 16:36:44 51°19.663 2°56.828 1.8 72 14.5 101680 63
2009-05-18 16:36:49 51°19.668 2°56.853 2.2 20 14.5 101690 62
2009-05-18 16:36:55 51°19.672 2°56.883 2.4 39 14.5 101690 62
2009-05-18 16:36:59 51°19.676 2°56.902 1.8 22 14.6 101680 61
2009-05-18 16:37:04 51°19.681 2°56.928 1.6 51 14.6 101680 61
2009-05-18 16:37:09 51°19.685 2°56.954 2 27 14.6 101690 62
2009-05-18 16:37:15 51°19.691 2°56.984 1.9 39 14.6 101690 62
2009-05-18 16:37:19 51°19.693 2°57.004 2.3 21 14.6 101680 62
2009-05-18 16:37:24 51°19.699 2°57.029 2.1 50 14.6 101680 62
2009-05-18 16:37:29 51°19.704 2°57.055 1.3 26 14.6 101690 61
2009-05-18 16:37:35 51°19.709 2°57.084 1.5 55 14.6 101690 61
2009-05-18 16:37:39 51°19.712 2°57.105 1.7 21 14.6 101680 61
2009-05-18 16:37:44 51°19.718 2°57.13 2.3 32 14.6 101680 61
2009-05-18 16:37:49 51°19.722 2°57.155 2.2 20 14.6 101680 62
2009-05-18 16:37:55 51°19.727 2°57.186 1.7 59 14.6 101680 62
2009-05-18 16:37:59 51°19.732 2°57.206 1.8 20 14.7 101680 62